#timestamp,LO_Frequency,Hit,StdDev 
1642971615.5,286047001.0,P
1642971635.3,286047000.6,P
1642971655.2,286047000.0,N
1642971675.0,286047000.1,N
1642971675.9,286047000.1,N
1642971695.7,286047002.1,Y
1642971715.6,286046999.7,P
1642971735.4,286046999.9,N
1642971755.3,286047000.9,N
1642971775.1,286047001.1,N
1642971795.8,286047001.2,N
1642971815.7,286047001.2,N
1642971835.5,286047000.7,N
1642971855.4,286046998.6,N
1642971875.2,286046998.3,N
1642971895.0,286046998.5,N
1642971895.9,286046998.5,N
1642971915.8,286046999.0,N
1642971935.6,286046999.5,N
1642971955.4,286046999.5,N
1642971975.3,286046996.6,Y
1642971995.1,286046996.7,P
1642972015.9,286046997.9,N
1642972035.7,286046995.4,P
1642972055.5,286046995.3,N
1642972075.4,286046995.8,N
1642972095.2,286046996.3,N
1642972115.1,286046993.7,Y
1642972116.0,286046993.7,P
1642972135.8,286046996.5,N
1642972155.6,286046998.7,N
1642972175.5,286047000.0,N
1642972195.3,286047001.0,N
1642972215.2,286047000.0,N
1642972235.9,286047000.4,N
1642972255.7,286047000.5,N
1642972275.6,286046999.7,N
1642972295.4,286047000.1,N
1642972315.2,286047000.6,N
1642972335.1,286047000.6,N
1642972336.0,286047000.6,N
1642972355.8,286047001.1,N
1642972375.7,286047001.2,N
1642972395.5,286047001.0,N
1642972415.3,286047000.4,N
1642972435.2,286047000.3,N
1642972455.0,286047000.3,N
1642972455.9,286047000.3,N
1642972475.8,286046999.9,N
1642972495.6,286047002.8,N
1642972515.4,286047000.1,N
1642972535.3,286047000.2,N
1642972555.1,286047000.2,N
1642972575.8,286047002.4,N
1642972595.7,286047004.0,N
1642972615.5,286047000.2,N
1642972635.4,286047000.2,N
1642972655.2,286046999.7,N
1642972675.0,286047000.3,N
1642972675.9,286047000.3,N
1642972695.8,286046999.8,N
1642972715.6,286047001.0,N
1642972735.4,286046998.7,N
1642972755.3,286047000.4,N
1642972775.1,286047000.6,N
1642972795.9,286047001.2,N
1642972815.7,286047001.1,N
1642972835.5,286046999.9,N
1642972855.6,286047000.8,N
1642972875.5,286046999.9,N
1642972895.3,286047000.3,N
1642972915.1,286046999.9,N
1642972935.9,286046999.8,N
1642972955.7,286047000.9,N
1642972975.6,286047001.1,N
1642972995.4,286047001.2,N
1642973015.2,286047000.8,N
1642973035.1,286046998.5,N
1642973036.0,286046998.5,N
1642973055.8,286046998.8,N
1642973075.7,286046999.0,N
1642973095.5,286046999.4,N
1642973115.3,286046999.5,N
1642973135.2,286046996.5,Y
1642973155.0,286046996.8,P
1642973155.9,286047011.9,P
1642973175.7,286046999.6,N
1642973195.6,286046999.0,N
1642973215.4,286046997.3,N
1642973235.3,286046994.9,N
1642973255.1,286046996.7,N
1642973256.0,286046996.7,N
1642973275.8,286046997.1,N
1642973295.7,286046996.8,N
1642973315.5,286046997.8,N
1642973335.4,286046997.6,N
1642973355.2,286046997.6,N
1642973375.0,286046997.7,N
1642973375.9,286046997.7,N
1642973395.8,286046997.5,N
1642973415.6,286046997.5,N
1642973435.4,286046997.8,N
1642973455.3,286046997.1,N
1642973475.1,286046999.1,N
1642973495.9,286046996.7,N
1642973515.7,286046997.6,N
1642973535.5,286046994.9,N
1642973555.4,286046997.9,N
1642973575.2,286046995.5,N
1642973595.0,286046995.7,N
1642973596.0,286046995.7,N
1642973615.8,286046995.8,N
1642973635.6,286046995.5,N
1642973655.5,286046995.0,N
1642973675.3,286046997.9,N
1642973695.1,286046995.4,N
1642973715.9,286046994.9,Y
1642973735.7,286047001.0,P
1642973755.6,286046998.7,N
1642973775.4,286046999.0,N
1642973795.2,286046998.5,N
1642973815.1,286046998.5,N
1642973816.0,286046998.5,N
1642973835.8,286046998.5,N
1642973855.6,286046998.8,N
1642973875.5,286046999.5,N
1642973895.3,286046996.5,Y
1642973915.2,286046998.4,P
1642973935.9,286046998.3,P
1642973955.7,286046998.3,P
1642973975.6,286046997.1,Y
1642973995.4,286046998.2,P
1642974015.2,286047000.1,N
1642974035.1,286046999.9,N
1642974036.0,286046999.9,N
1642974055.8,286047000.3,N
1642974075.7,286047000.3,N
1642974095.5,286047000.0,N
1642974115.3,286046999.9,N
1642974135.2,286047002.3,Y
1642974155.0,286047002.8,P
1642974155.9,286047002.8,N
1642974175.8,286047001.8,N
1642974195.6,286047001.5,N
1642974215.4,286047002.3,N
1642974235.3,286047003.2,N
1642974255.1,286047001.7,N
1642974275.9,286047001.9,N
1642974295.7,286047001.9,N
1642974315.5,286047004.0,Y
1642974335.4,286047001.6,P
1642974355.2,286047003.8,P
1642974375.1,286047001.7,N
1642974376.0,286047001.7,N
1642974395.8,286047002.4,N
1642974415.6,286046998.5,N
1642974435.5,286046998.8,N
1642974455.3,286046996.8,N
1642974475.1,286046997.2,N
1642974495.9,286046997.1,N
1642974515.7,286046996.5,N
1642974535.6,286046999.0,N
1642974555.4,286046999.6,N
1642974575.2,286046999.0,N
1642974595.1,286046998.5,N
1642974596.0,286046998.5,N
1642974615.8,286046998.4,N
1642974635.6,286046998.3,N
1642974655.5,286046998.5,N
1642974675.3,286046997.1,N
1642974695.2,286046997.7,N
1642974715.9,286046996.7,N
1642974735.7,286046997.0,N
1642974755.6,286046999.1,N
1642974775.4,286046998.4,N
1642974795.2,286046998.9,N
1642974815.1,286047000.4,N
1642974816.0,286047000.4,N
1642974835.8,286047002.1,N
1642974855.7,286046999.8,N
1642974875.5,286047002.8,N
1642974895.3,286047000.9,N
1642974915.2,286047001.0,N
1642974935.0,286046999.4,N
1642974965.9,286047000.5,E
1642974975.9,286047000.2,N
1642974995.7,286047000.1,P
1642975015.5,286047002.6,P
1642975035.4,286047002.6,N
1642975055.2,286047001.6,N
1642975075.1,286047001.8,N
1642975076.0,286047001.8,N
1642975095.8,286047001.3,N
1642975115.6,286047002.0,N
1642975135.5,286047000.4,N
1642975155.3,286046999.8,N
1642975175.1,286046999.9,N
1642975195.9,286046999.8,N
